[[{"header":{"parameterUnit":"m.s-1","parameterCategory":1,"la1":30.2991,"la2":30.254,"lo1":-89.0895,"lo2":-89.0444,"dy":0.0017,"dx":0.0017,"nx":28,"ny":28,"refTime":"2025-08-08T03:00:00:Z","depth":0,"parameterNumber":2,"parameterNumberName":"U-component_of_WINDS"},"data":[0,0,0,0,0,0,0,0,0,0,0,0,0,0,0,0,0,0,0,0,0,0,0,0,0,0,0,0,0,0,0,0,0,0,0,0,0,0,0,0,0,0,0,0,0,0,0,0,0,0,0,0,0,0,0,0,0,0,-3.4403,-3.4402,0,-3.4356,-3.4356,-3.4355,-3.4251,-3.4249,-3.4247,-3.4245,-3.4201,-3.4202,-3.4202,0,0,0,0,0,0,0,0,0,0,0,0,0,-3.4405,-3.4405,-3.4403,-3.4402,-3.4402,-3.4357,-3.4356,-3.4355,-3.4251,-3.4249,-3.4246,-3.4244,-3.42,-3.4201,-3.4202,0,0,0,0,0,0,0,0,0,0,0,0,0,-3.4386,-3.4406,-3.4403,-3.4344,-3.4338,-3.4357,-3.4356,-3.4355,-3.4252,-3.4249,-3.4245,-3.4242,-3.42,-3.4201,-3.4203,-3.4275,0,0,-3.4207,-3.4207,0,0,0,0,0,0,0,0,-3.4387,-3.4386,-3.4353,-3.4348,-3.4342,-3.4306,-3.434,-3.4329,-3.4253,-3.4285,-3.4244,-3.4241,-3.4239,-3.4237,-3.4235,-3.4273,-3.4271,-3.4207,-3.4207,-3.4208,-3.4208,0,0,0,0,0,0,0,-3.4389,-3.4387,-3.4384,-3.4353,-3.4346,-3.4321,-3.4315,-3.4338,-3.4281,-3.4282,-3.4274,-3.427,-3.4235,-3.4234,-3.4233,-3.4271,-3.4207,-3.4208,-3.4208,-3.4209,-3.4368,-3.4371,0,0,0,0,0,0,-3.4398,-3.4389,-3.4386,-3.4383,-3.4357,-3.4324,-3.4317,-3.4321,-3.428,-3.4271,-3.4273,-3.4265,-3.4234,-3.4232,-3.4231,-3.4315,-3.4208,-3.4209,-3.421,-3.4365,-3.4369,-3.4372,0,0,0,0,0,0,-3.4398,-3.4399,-3.4388,-3.4384,-3.4381,-3.4327,-3.4333,-3.4322,-3.4321,-3.4273,-3.4263,-3.4282,-3.4231,-3.423,-3.4265,-3.4312,-3.421,-3.4211,-3.436,-3.4366,-3.4371,-3.4482,0,0,0,0,0,0,-3.4399,-3.4399,-3.4425,-3.4385,-3.4381,-3.4422,-3.4335,-3.4323,-3.4323,-3.4313,-3.4279,-3.4271,-3.4228,-3.4264,-3.4267,-3.4312,-3.4212,-3.4356,-3.4363,-3.4369,-3.4474,-3.4491,-3.4505,0,0,0,0,0,-3.4399,-3.4459,-3.4427,-3.4428,-3.4413,-3.4424,-3.4422,-3.4371,-3.4327,-3.4353,-3.4323,-3.4272,-3.4306,-3.4268,-3.4271,-3.4317,-3.4353,-3.4361,-3.4368,-3.4467,-3.4488,-3.4504,0,0,0,0,0,0,-3.4507,-3.4453,-3.4417,-3.4465,-3.445,-3.4407,-3.4439,-3.4394,-3.4392,-3.4383,-3.4321,-3.4314,-3.4359,-3.4341,-3.43,-3.4386,-3.4321,-3.433,-3.4396,-3.4415,-3.443,-3.4434,-3.4213,0,0,0,0,0,-3.4536,-3.4549,-3.4501,-3.4549,-3.4543,-3.4493,-3.4496,-3.4458,-3.444,-3.4434,-3.4406,-3.4392,-3.4399,-3.4406,-3.441,-3.4471,-3.4463,-3.4504,-3.4519,-3.4532,-3.4541,-3.4573,-3.4592,-3.4398,-3.4398,-3.4398,0,0,-3.4597,-3.4569,-3.4581,-3.457,-3.4554,-3.457,-3.4488,-3.4508,-3.452,-3.4437,-3.4469,-3.4448,-3.4429,-3.4478,-3.4498,-3.4465,-3.4592,-3.4542,-3.4553,-3.4554,-3.4583,-3.4602,-3.4618,-3.4403,-3.4402,-3.4402,0,0,-3.4717,-3.4696,-3.4734,-3.4719,-3.4696,-3.4662,-3.4671,-3.4635,-3.4617,-3.4648,-3.4587,-3.4601,-3.4615,-3.4604,-3.46,-3.4717,-3.467,-3.472,-3.48,-3.4833,-3.4848,-3.4861,-3.4905,-3.4921,-3.4728,-3.4729,-3.4729,0,-3.4796,-3.4816,-3.4759,-3.4784,-3.4782,-3.4706,-3.4745,-3.4734,-3.4714,-3.4715,-3.4677,-3.4694,-3.4675,-3.4722,-3.475,-3.4749,-3.4759,-3.4724,-3.485,-3.4863,-3.4875,-3.4915,-3.4932,-3.4735,-3.4734,-3.4734,-3.4733,0,-3.4916,-3.4931,-3.4965,-3.4946,-3.4948,-3.498,-3.4929,-3.4937,-3.49,-3.487,-3.4904,-3.4879,-3.4878,-3.4885,-3.4849,-3.4927,-3.4907,-3.4861,-3.4795,-3.49,-3.4938,-3.4953,-3.4744,-3.4742,-3.474,-3.4738,0,0,-3.5102,-3.5051,-3.5065,-3.5056,-3.5025,-3.5037,-3.5066,-3.5064,-3.5073,-3.5062,-3.5086,-3.51,-3.5057,-3.5053,-3.5015,-3.5044,-3.514,-3.4994,-3.4992,-3.5023,-3.5227,-3.5263,-3.5282,-3.5108,-3.5111,-3.5113,-3.5229,0,-3.5215,-3.526,-3.5211,-3.5267,-3.5282,-3.5211,-3.5237,-3.5222,-3.5195,-3.5205,-3.5176,-3.5188,-3.5129,-3.5127,-3.5152,-3.5123,-3.518,-3.5114,-3.5132,-3.5134,-3.5141,-3.5301,-3.5339,-3.545,-3.5243,-3.5246,-3.5247,0,-3.5353,-3.5348,-3.5406,-3.5372,-3.5377,-3.54,-3.5395,-3.5405,-3.5387,-3.5366,-3.5362,-3.5316,-3.5343,-3.5279,-3.5317,-3.5273,-3.5278,-3.5265,-3.5268,-3.5269,-3.5198,-3.5308,-3.5484,-3.5501,-3.5269,-3.5268,-3.5266,0,-3.5485,-3.5492,-3.5529,-3.5523,-3.5484,-3.5503,-3.5488,-3.5466,-3.5469,-3.5465,-3.5466,-3.5466,-3.5466,-3.5468,-3.5423,-3.538,-3.5469,-3.5399,-3.5454,-3.5455,-3.5477,-3.5476,-3.5657,-3.5477,-3.5477,-3.5477,-3.5477,0,-3.5617,-3.5656,-3.5588,-3.561,-3.5652,-3.5595,-3.5639,-3.5616,-3.5598,-3.5616,-3.5555,-3.5574,-3.5513,-3.5526,-3.5491,-3.553,-3.553,-3.5515,-3.5506,-3.5522,-3.5524,-3.5525,-3.5517,-3.5481,-3.548,-3.5479,-3.5479,0,-3.5772,-3.5727,-3.5763,-3.5723,-3.5714,-3.5747,-3.5714,-3.5734,-3.5704,-3.5728,-3.573,-3.5683,-3.5695,-3.5651,-3.5655,-3.5632,-3.569,-3.5667,-3.5696,-3.569,-3.5747,-3.5743,-3.5936,-3.5959,-3.5764,-3.5766,-3.5767,0,-3.586,-3.5889,-3.5852,-3.5859,-3.5847,-3.586,-3.5862,-3.5807,-3.5812,-3.5794,-3.5817,-3.5824,-3.5827,-3.585,-3.5817,-3.5821,-3.5799,-3.5866,-3.5799,-3.5814,-3.5802,-3.5801,-3.5805,-3.5881,-3.5883,-3.5885,-3.5887,0,-3.6022,-3.5999,-3.6003,-3.6001,-3.6005,-3.6001,-3.5993,-3.6003,-3.5944,-3.5953,-3.5964,-3.5966,-3.5971,-3.5979,-3.5976,-3.5962,-3.5916,-3.5908,-3.5921,-3.5938,-3.5954,-3.5948,-3.5736,-3.5904,-3.5902,-3.5901,-3.59,-3.5899,-3.6147,-3.6169,-3.6148,-3.6156,-3.6143,-3.6137,-3.6155,-3.6127,-3.6134,-3.6133,-3.6101,-3.6119,-3.6102,-3.6093,-3.6084,-3.6098,-3.6067,-3.6086,-3.609,-3.6096,-3.6107,-3.5951,-3.6097,-3.6097,-3.6096,-3.6096,-3.6095,0,-3.6307,-3.6289,-3.6297,-3.6287,-3.6294,-3.6248,-3.6237,-3.6246,-3.6263,-3.625,-3.6253,-3.6267,-3.6275,-3.6244,-3.6248,-3.6266,-3.6245,-3.6269,-3.6268,-3.6266,-3.6134,-3.6123,-3.6286,-3.6286,-3.6286,-3.6286,-3.6286,-3.6286,-3.6391,-3.6427,-3.6402,-3.6432,-3.6414,-3.643,-3.6428,-3.6423,-3.6413,-3.6431,-3.6437,-3.6415,-3.6396,-3.6398,-3.6404,-3.6394,-3.64,-3.6432,-3.6416,-3.6293,-3.6275,-3.6257,-3.6247,-3.6433,-3.6433,-3.6546,-3.6547,-3.6548]},{"header":{"parameterUnit":"m.s-1","parameterCategory":1,"la1":30.2991,"la2":30.254,"lo1":-89.0895,"lo2":-89.0444,"dy":0.0017,"dx":0.0017,"nx":28,"ny":28,"refTime":"2025-08-08T03:00:00:Z","depth":0,"parameterNumber":3,"parameterNumberName":"V-component_of_WINDS"},"data":[0,0,0,0,0,0,0,0,0,0,0,0,0,0,0,0,0,0,0,0,0,0,0,0,0,0,0,0,0,0,0,0,0,0,0,0,0,0,0,0,0,0,0,0,0,0,0,0,0,0,0,0,0,0,0,0,0,0,0.0069,0.0069,0,0.0015,0.0014,0.0014,0.0009,0.001,0.001,0.0011,-0.0048,-0.005,-0.0053,0,0,0,0,0,0,0,0,0,0,0,0,0,0.0165,0.0163,0.0069,0.0068,0.0068,0.0015,0.0014,0.0014,0.0009,0.001,0.001,0.0011,-0.0048,-0.005,-0.0053,0,0,0,0,0,0,0,0,0,0,0,0,0,0.0118,0.0162,0.0069,0.0059,0.0058,0.0015,0.0014,0.0013,0.0009,0.001,0.0011,0.0011,-0.0047,-0.005,-0.0053,-0.009,0,0,-0.0063,-0.0064,0,0,0,0,0,0,0,0,0.0121,0.0115,0.0061,0.006,0.0058,0.002,0.0026,-0.0022,0.0009,0.0027,0.0011,0.0012,-0.0027,-0.0031,-0.0044,-0.0093,-0.0096,-0.0063,-0.0065,-0.0066,-0.0067,0,0,0,0,0,0,0,0.0124,0.0117,0.0048,0.0061,0.0059,0.0056,0.0051,0.0017,-0.0004,0.0026,0.0025,0.0019,-0.0027,-0.0041,-0.0045,-0.0097,-0.0063,-0.0066,-0.0068,-0.0069,-0.0181,-0.0182,0,0,0,0,0,0,0.013,0.012,0.0049,0.0046,0.0092,0.0054,0.0047,0.0031,-0.0004,-0.0008,0.0018,0.0019,-0.0036,-0.0041,-0.0047,-0.0095,-0.0066,-0.0069,-0.0071,-0.018,-0.0181,-0.0182,0,0,0,0,0,0,0.0132,0.0123,0.0052,0.0083,0.0073,0.0051,0.0033,0.003,0.0016,-0.0009,-0.0013,0.0009,-0.0035,-0.0043,-0.008,-0.0097,-0.0071,-0.0074,-0.0179,-0.018,-0.0182,-0.0189,0,0,0,0,0,0,0.0134,0.0124,0.0111,0.0082,0.0072,0.0021,0.0032,0.0028,0.0011,0.0012,-0.0019,-0.0023,-0.0035,-0.0075,-0.0083,-0.0101,-0.0076,-0.0177,-0.0179,-0.0181,-0.0187,-0.0191,-0.0193,0,0,0,0,0,0.0138,0.011,0.011,0.0101,0.0054,0.002,0.0014,0.0002,0.001,-0.0005,-0.0021,-0.0022,-0.0093,-0.0079,-0.0088,-0.0107,-0.0176,-0.0179,-0.0181,-0.0186,-0.019,-0.0193,0,0,0,0,0,0,0.0136,0.0106,0.0106,0.0068,0.0047,0.0019,0.0,-0.0002,-0.0027,-0.0026,-0.004,-0.0047,-0.0084,-0.0099,-0.0082,-0.0145,-0.0134,-0.0138,-0.0135,-0.0139,-0.0141,-0.0138,-0.0079,0,0,0,0,0,0.0131,0.0107,0.0082,0.0051,0.0041,0.0023,0.0007,0.0,-0.0023,-0.0033,-0.0052,-0.0076,-0.0103,-0.0121,-0.0148,-0.0189,-0.0197,-0.0206,-0.0209,-0.0211,-0.0216,-0.024,-0.0245,-0.019,-0.019,-0.019,0,0,0.0121,0.0102,0.0087,0.005,0.0033,0.0007,0.0015,-0.0013,-0.0033,-0.0037,-0.0074,-0.0088,-0.0116,-0.0155,-0.0174,-0.0169,-0.0232,-0.0215,-0.0216,-0.0219,-0.0243,-0.0248,-0.0253,-0.0192,-0.0192,-0.0191,0,0,0.0088,0.0072,0.0044,0.0027,0.0001,-0.0011,-0.0018,-0.0045,-0.0055,-0.0091,-0.0095,-0.0119,-0.0166,-0.0186,-0.0202,-0.0242,-0.0245,-0.025,-0.0267,-0.029,-0.0295,-0.0299,-0.0315,-0.032,-0.0254,-0.0254,-0.0254,0,0.0078,0.0039,0.003,0.0002,-0.0015,-0.0018,-0.0048,-0.0064,-0.0099,-0.0111,-0.0104,-0.0163,-0.0182,-0.0227,-0.0236,-0.0249,-0.0258,-0.0248,-0.0293,-0.0297,-0.0301,-0.0317,-0.0323,-0.0255,-0.0255,-0.0254,-0.0254,0,0.0027,0.0,-0.0019,-0.0051,-0.007,-0.0098,-0.0113,-0.0131,-0.0136,-0.0149,-0.0187,-0.0209,-0.0241,-0.0251,-0.0257,-0.0297,-0.0294,-0.029,-0.0279,-0.0307,-0.0322,-0.0328,-0.0255,-0.0255,-0.0255,-0.0255,0,0,-0.0011,-0.0046,-0.0054,-0.0069,-0.0097,-0.0119,-0.0148,-0.0178,-0.0194,-0.0217,-0.0243,-0.0282,-0.0279,-0.0297,-0.0305,-0.0325,-0.0358,-0.0319,-0.032,-0.0327,-0.0406,-0.041,-0.0417,-0.0358,-0.036,-0.036,-0.0404,0,-0.0048,-0.0099,-0.0108,-0.0153,-0.0179,-0.0182,-0.0208,-0.0229,-0.0241,-0.0266,-0.028,-0.0309,-0.0301,-0.0313,-0.0332,-0.0349,-0.0374,-0.0346,-0.0385,-0.0386,-0.0381,-0.0424,-0.0429,-0.0469,-0.041,-0.0411,-0.0411,0,-0.0099,-0.0123,-0.017,-0.0196,-0.0207,-0.023,-0.0259,-0.0281,-0.0306,-0.0314,-0.0334,-0.0339,-0.0371,-0.0357,-0.0402,-0.0383,-0.0399,-0.041,-0.0412,-0.0418,-0.0402,-0.0434,-0.0482,-0.0489,-0.042,-0.042,-0.0419,0,-0.0125,-0.0168,-0.0202,-0.0215,-0.0245,-0.0261,-0.0275,-0.0298,-0.0316,-0.0341,-0.0353,-0.0382,-0.0398,-0.0421,-0.0434,-0.0423,-0.0479,-0.0466,-0.0489,-0.0488,-0.0503,-0.0502,-0.0556,-0.0509,-0.0509,-0.0509,-0.0508,0,-0.0167,-0.0197,-0.0214,-0.0236,-0.0269,-0.0279,-0.0313,-0.0326,-0.0347,-0.0372,-0.0376,-0.04,-0.0415,-0.0441,-0.0452,-0.0489,-0.0496,-0.0504,-0.0507,-0.0506,-0.0505,-0.0518,-0.0517,-0.051,-0.051,-0.0509,-0.0509,0,-0.0203,-0.0215,-0.0253,-0.0278,-0.0285,-0.0309,-0.0331,-0.0353,-0.0365,-0.0397,-0.0405,-0.0424,-0.0455,-0.047,-0.0509,-0.0516,-0.0559,-0.0559,-0.0551,-0.0553,-0.0575,-0.0574,-0.0642,-0.0653,-0.0596,-0.0596,-0.0597,0,-0.023,-0.0253,-0.028,-0.0297,-0.0311,-0.0337,-0.0355,-0.0366,-0.0385,-0.0414,-0.0433,-0.0463,-0.0489,-0.0539,-0.0558,-0.0588,-0.059,-0.0612,-0.0595,-0.0592,-0.0593,-0.0593,-0.0596,-0.0616,-0.0616,-0.0617,-0.0617,0,-0.0279,-0.0284,-0.0309,-0.0336,-0.0357,-0.0379,-0.0401,-0.0414,-0.0429,-0.045,-0.0481,-0.0501,-0.054,-0.0572,-0.0603,-0.0618,-0.0621,-0.0622,-0.0629,-0.0629,-0.0624,-0.0629,-0.0562,-0.0621,-0.0621,-0.062,-0.062,-0.062,-0.0313,-0.0334,-0.0356,-0.0384,-0.0401,-0.0422,-0.0444,-0.0458,-0.0484,-0.0516,-0.0521,-0.0555,-0.0579,-0.0621,-0.0637,-0.0665,-0.066,-0.067,-0.0673,-0.0676,-0.0679,-0.0617,-0.0671,-0.067,-0.067,-0.067,-0.067,0,-0.0364,-0.0378,-0.0403,-0.0434,-0.0456,-0.0454,-0.0478,-0.0497,-0.0527,-0.0549,-0.0573,-0.061,-0.064,-0.0661,-0.0692,-0.071,-0.0713,-0.0718,-0.0719,-0.0723,-0.068,-0.0672,-0.0716,-0.0716,-0.0716,-0.0716,-0.0716,-0.0716,-0.0393,-0.0429,-0.0436,-0.0481,-0.0495,-0.0528,-0.0542,-0.0561,-0.0579,-0.0619,-0.0644,-0.0657,-0.0678,-0.0711,-0.074,-0.0745,-0.0757,-0.0764,-0.077,-0.073,-0.0725,-0.0721,-0.0713,-0.0766,-0.0766,-0.081,-0.0811,-0.0811]}]]